Weather in Barlad

Romania     46°13′39″N   27°40′09″E
temp.,
°C
wind,
m/s
gust,
m/s
humid.,
%
clouds,
%
prec.,
mm/h
press.,
hPa
HPBL,
m
29 november, mon
mon2923:00+11s71768100 0.0 999484
02:00+10sse5117795 0.0 996298
05:00+8sse41085100 0.0 993265
08:00+10s51274100 0.1 991349
11:00+11ssw5973100 0.9 990484
14:00+12w6757100 1.1 989617
17:00+9nw497582 0.1 993515
20:00+7w377199 0.1 997155
30 november, tue
tue3023:00+6w597045 0.0 999222
02:00+4n117727 0.0 100120
05:00+2ne2289100 0.0 100328
08:00+2nne2672100 0.0 1004294
11:00+4n5756100 0.0 1004596
14:00+5n5850100 0.0 1003892
17:00+2nnw226026 0.0 100419
20:00+1sw22654 0.0 100618
1 december, wed
wed123:00+1wsw712615 0.0 1006358
02:00+2sw71356100 0.0 1005414
05:00+4wsw9145198 0.0 1004911
08:00+4wsw71354100 0.0 1005602
11:00+8w8124314 0.0 10061413
14:00+9wnw8104068 0.0 10061884
17:00+6wnw485073 0.0 1008148
20:00+4wsw510645 0.0 1010264
2 december, thu
thu223:00+4ssw4966100 0.0 1009174
02:00+3ssw497184 0.0 1008188
05:00+3ssw358115 0.0 100886
08:00+1ssw22886 0.0 100840
11:00+7ssw3557100 0.0 1008234
14:00+10ssw5947100 0.0 1005364
17:00+7s511625 0.0 1005304
20:00+6ssw615605 0.0 1005300
3 december, fri
fri323:00+7s6165553 0.0 1004328
02:00+7s7185165 0.0 1003357
05:00+7s71853100 0.0 1002364
08:00+7s6155699 0.0 1002276
11:00+11ssw91842100 0.0 1001624
14:00+14ssw91542100 0.0 1000619
17:00+4n81293100 0.0 1005432
20:00+3nnw41195100 0.1 1008613